When you browse on this site, cookies collect data to enhance your experience and personalize the content and advertising you see.
Visit our Privacy Policy to learn more. By continuing to use the site, you agree to this use of cookies and data.
  • în România
  • Lista ţărilor
  • Pe 7 zile
  • Temperatura apei
  • Meteo pe hartă
  • Widget-uri
  • user-avatar
    Intrare

    Meteo pe oră la Maceio

    Astăzi, 27 Februarie, Joi

    Timp Temperatura Precipitaţii Vânt Presiune Umiditate
    00:00 +28°C° 0 mm 3 m/s 758 mmHg 84%
    01:00 +27°C° 0 mm 3 m/s 758 mmHg 85%
    02:00 +27°C° 0 mm 2 m/s 757 mmHg 85%
    03:00 +27°C° 0 mm 2 m/s 757 mmHg 85%
    04:00 +27°C° 0 mm 2 m/s 757 mmHg 87%
    05:00 +27°C° 0 mm 2 m/s 757 mmHg 86%
    06:00 +27°C° 0 mm 2 m/s 758 mmHg 85%
    07:00 +28°C° 0 mm 2 m/s 758 mmHg 84%
    08:00 +29°C° 0 mm 2 m/s 758 mmHg 77%
    09:00 +30°C° 0 mm 3 m/s 759 mmHg 71%
    10:00 +33°C° 0 mm 3 m/s 760 mmHg 61%
    11:00 +34°C° 0 mm 3 m/s 759 mmHg 57%
    12:00 +35°C° 0 mm 4 m/s 758 mmHg 54%
    13:00 +36°C° 0 mm 4 m/s 758 mmHg 50%
    14:00 +36°C° 0 mm 4 m/s 757 mmHg 51%
    15:00 +36°C° 0 mm 4 m/s 757 mmHg 51%
    16:00 +35°C° 0 mm 4 m/s 757 mmHg 52%
    17:00 +34°C° 0 mm 5 m/s 756 mmHg 58%
    18:00 +32°C° 0 mm 5 m/s 756 mmHg 64%
    19:00 +30°C° 0 mm 5 m/s 756 mmHg 71%
    20:00 +29°C° 0 mm 5 m/s 757 mmHg 74%
    21:00 +29°C° 0 mm 5 m/s 758 mmHg 77%
    22:00 +28°C° 0 mm 5 m/s 758 mmHg 80%
    23:00 +28°C° 0 mm 5 m/s 758 mmHg 83%

    Mâine, 28 Februarie, Vineri

    Timp Temperatura Precipitaţii Vânt Presiune Umiditate
    00:00 +28°C° 0 mm 4 m/s 758 mmHg 85%
    01:00 +27°C° 0 mm 4 m/s 758 mmHg 87%
    02:00 +27°C° 0 mm 4 m/s 758 mmHg 89%
    03:00 +27°C° 0 mm 4 m/s 758 mmHg 90%
    04:00 +26°C° 0 mm 4 m/s 758 mmHg 91%
    05:00 +27°C° 0 mm 3 m/s 758 mmHg 89%
    06:00 +27°C° 0 mm 3 m/s 759 mmHg 87%
    07:00 +28°C° 0 mm 3 m/s 759 mmHg 85%
    08:00 +30°C° 0 mm 3 m/s 759 mmHg 75%
    09:00 +33°C° 0 mm 3 m/s 759 mmHg 65%
    10:00 +35°C° 0 mm 3 m/s 760 mmHg 55%
    11:00 +35°C° 0 mm 4 m/s 759 mmHg 54%
    12:00 +36°C° 0 mm 4 m/s 759 mmHg 53%
    13:00 +36°C° 0 mm 5 m/s 758 mmHg 51%
    14:00 +36°C° 0 mm 5 m/s 758 mmHg 53%
    15:00 +35°C° 0 mm 5 m/s 757 mmHg 55%
    16:00 +35°C° 0 mm 6 m/s 757 mmHg 57%
    17:00 +33°C° 0 mm 5 m/s 757 mmHg 64%
    18:00 +32°C° 0 mm 5 m/s 757 mmHg 70%
    19:00 +30°C° 0 mm 5 m/s 758 mmHg 77%
    20:00 +29°C° 0 mm 5 m/s 758 mmHg 79%
    21:00 +29°C° 0 mm 5 m/s 759 mmHg 80%
    22:00 +29°C° 0 mm 5 m/s 759 mmHg 82%
    23:00 +28°C° 0 mm 5 m/s 759 mmHg 84%

    Poimâine, 29 Februarie, Sâmbătă

    Timp Temperatura Precipitaţii Vânt Presiune Umiditate
    00:00 +28°C° 0 mm 4 m/s 759 mmHg 86%
    01:00 +28°C° 0 mm 3 m/s 759 mmHg 87%
    02:00 +27°C° 0 mm 3 m/s 759 mmHg 88%
    03:00 +27°C° 0 mm 3 m/s 758 mmHg 88%
    04:00 +27°C° 0 mm 3 m/s 758 mmHg 89%
    05:00 +27°C° 0 mm 3 m/s 758 mmHg 88%
    06:00 +27°C° 0 mm 2 m/s 758 mmHg 87%
    07:00 +27°C° 0 mm 2 m/s 759 mmHg 87%
    08:00 +29°C° 0 mm 3 m/s 759 mmHg 77%
    09:00 +31°C° 0 mm 3 m/s 759 mmHg 68%
    10:00 +34°C° 0 mm 3 m/s 760 mmHg 58%
    11:00 +34°C° 0 mm 4 m/s 759 mmHg 56%
    12:00 +34°C° 0 mm 4 m/s 759 mmHg 54%
    13:00 +35°C° 0 mm 4 m/s 758 mmHg 52%
    14:00 +34°C° 0 mm 4 m/s 758 mmHg 53%
    15:00 +34°C° 0 mm 4 m/s 757 mmHg 55%
    16:00 +34°C° 0 mm 5 m/s 757 mmHg 56%
    17:00 +32°C° 0 mm 4 m/s 757 mmHg 61%
    18:00 +30°C° 0 mm 4 m/s 757 mmHg 66%
    19:00 +29°C° 0 mm 4 m/s 757 mmHg 71%
    20:00 +29°C° 0 mm 4 m/s 758 mmHg 74%
    21:00 +28°C° 0 mm 3 m/s 758 mmHg 77%
    22:00 +28°C° 0 mm 3 m/s 759 mmHg 80%
    23:00 +27°C° 0 mm 3 m/s 758 mmHg 81%

    1 Martie, Duminică

    Timp Temperatura Precipitaţii Vânt Presiune Umiditate
    00:00 +27°C° 0 mm 3 m/s 758 mmHg 83%
    01:00 +27°C° 0 mm 2 m/s 758 mmHg 85%
    02:00 +26°C° 0 mm 2 m/s 758 mmHg 85%
    03:00 +26°C° 0 mm 2 m/s 757 mmHg 86%
    04:00 +26°C° 0 mm 1 m/s 757 mmHg 87%
    05:00 +26°C° 0 mm 1 m/s 757 mmHg 86%
    06:00 +26°C° 0 mm 1 m/s 758 mmHg 86%
    07:00 +26°C° 0 mm 1 m/s 758 mmHg 85%
    08:00 +29°C° 0 mm 1 m/s 758 mmHg 74%
    09:00 +31°C° 0 mm 1 m/s 758 mmHg 63%
    10:00 +34°C° 0 mm 1 m/s 759 mmHg 51%
    11:00 +35°C° 0 mm 2 m/s 758 mmHg 50%
    12:00 +35°C° 0 mm 3 m/s 758 mmHg 49%
    13:00 +36°C° 0 mm 4 m/s 757 mmHg 48%
    14:00 +35°C° 0 mm 4 m/s 757 mmHg 51%
    15:00 +35°C° 0 mm 5 m/s 756 mmHg 54%
    16:00 +34°C° 0 mm 5 m/s 756 mmHg 57%
    17:00 +33°C° 0 mm 5 m/s 756 mmHg 62%
    18:00 +32°C° 0 mm 5 m/s 756 mmHg 68%
    19:00 +29°C° 0 mm 5 m/s 757 mmHg 73%
    20:00 +29°C° 0 mm 4 m/s 757 mmHg 75%
    21:00 +28°C° 0 mm 4 m/s 758 mmHg 78%
    22:00 +28°C° 0 mm 3 m/s 758 mmHg 80%
    23:00 +28°C° 0 mm 3 m/s 758 mmHg 82%

    2 Martie, Luni

    Timp Temperatura Precipitaţii Vânt Presiune Umiditate
    00:00 +28°C° 0 mm 3 m/s 758 mmHg 84%
    01:00 +28°C° 0 mm 3 m/s 757 mmHg 85%
    02:00 +27°C° 0.2 mm 2 m/s 757 mmHg 86%
    03:00 +27°C° 0.2 mm 2 m/s 757 mmHg 86%
    04:00 +27°C° 0.2 mm 2 m/s 757 mmHg 87%
    05:00 +27°C° 0.1 mm 2 m/s 757 mmHg 87%
    06:00 +27°C° 0.1 mm 2 m/s 757 mmHg 87%
    07:00 +27°C° 0.1 mm 2 m/s 757 mmHg 87%
    08:00 +29°C° 0 mm 2 m/s 757 mmHg 77%
    09:00 +31°C° 0 mm 2 m/s 758 mmHg 66%
    10:00 +34°C° 0 mm 2 m/s 758 mmHg 56%
    11:00 +35°C° 0 mm 3 m/s 758 mmHg 53%
    12:00 +36°C° 0 mm 3 m/s 757 mmHg 50%
    13:00 +37°C° 0 mm 4 m/s 757 mmHg 47%
    14:00 +36°C° 0 mm 4 m/s 756 mmHg 49%
    15:00 +36°C° 0 mm 4 m/s 756 mmHg 51%
    16:00 +35°C° 0 mm 5 m/s 756 mmHg 54%
    17:00 +33°C° 0 mm 5 m/s 756 mmHg 60%
    18:00 +32°C° 0 mm 4 m/s 756 mmHg 67%
    19:00 +30°C° 0 mm 4 m/s 756 mmHg 74%
    20:00 +29°C° 0 mm 4 m/s 757 mmHg 77%
    21:00 +28°C° 0 mm 4 m/s 757 mmHg 81%
    22:00 +28°C° 0 mm 3 m/s 758 mmHg 85%
    23:00 +28°C° 0 mm 3 m/s 758 mmHg 86%

    3 Martie, Marţi

    Timp Temperatura Precipitaţii Vânt Presiune Umiditate
    00:00 +27°C° 0 mm 3 m/s 758 mmHg 88%
    01:00 +27°C° 0 mm 3 m/s 757 mmHg 89%
    02:00 +27°C° 0 mm 3 m/s 757 mmHg 90%
    03:00 +27°C° 0 mm 2 m/s 757 mmHg 91%
    04:00 +26°C° 0 mm 2 m/s 757 mmHg 93%
    05:00 +26°C° 0.3 mm 2 m/s 757 mmHg 92%
    06:00 +27°C° 0.3 mm 2 m/s 757 mmHg 91%
    07:00 +27°C° 0.3 mm 2 m/s 757 mmHg 90%
    08:00 +29°C° 0.1 mm 2 m/s 758 mmHg 78%
    09:00 +32°C° 0.1 mm 2 m/s 758 mmHg 66%
    10:00 +35°C° 0.1 mm 2 m/s 758 mmHg 54%
    11:00 +36°C° 0.1 mm 3 m/s 758 mmHg 53%
    12:00 +36°C° 0.1 mm 4 m/s 757 mmHg 51%
    13:00 +37°C° 0.1 mm 5 m/s 757 mmHg 50%
    14:00 +36°C° 0.1 mm 5 m/s 757 mmHg 52%
    15:00 +35°C° 0.1 mm 6 m/s 756 mmHg 55%
    16:00 +35°C° 0.1 mm 6 m/s 756 mmHg 58%
    17:00 +33°C° 0 mm 6 m/s 756 mmHg 64%
    18:00 +32°C° 0 mm 6 m/s 756 mmHg 70%
    19:00 +30°C° 0 mm 6 m/s 757 mmHg 76%
    20:00 +29°C° 0.1 mm 5 m/s 757 mmHg 78%
    21:00 +29°C° 0.1 mm 5 m/s 758 mmHg 80%
    22:00 +29°C° 0.1 mm 4 m/s 758 mmHg 81%
    23:00 +28°C° 0.1 mm 4 m/s 758 mmHg 82%
    Arată mai mult